Location: Williams Lake
(52.1170°N, 122.1500°W)
Time: 23:51:16
(UTC-08:00)

Daily predictions for brighter satellites

Satellite Brightness Start Highest point End
(mag) Time Altitude Azimuth Time Altitude Azimuth Time Altitude Azimuth
Cosmos 44 3.8 17:55:11 10° NW 17:59:50 43° NE 18:04:44 10° ESE
COSMO-SKYMED 1 2.9 17:56:22 10° NNE 18:00:33 44° E 18:04:42 10° S
Cosmos 2219 Rocket 2.8 18:03:30 10° NW 18:09:09 65° WSW 18:14:44 10° SSE
USA 215 4.5 18:04:18 10° ENE 18:09:10 22° SE 18:14:01 10° S
SeaSat 1 2.8 18:05:09 10° ESE 18:09:49 45° NE 18:14:32 10° NNW
Meteor 1-28 Rocket 4.0 18:07:23 10° N 18:11:04 54° WNW 18:14:42 10° SSW
CZ-2C R/B 3.6 18:11:05 10° NNE 18:15:37 75° ESE 18:20:03 10° S
MOS 1-B Rocket 4.0 18:09:45 10° SSE 18:16:06 88° ENE 18:21:51 10° NNW
Cosmos 923 Rocket 4.1 18:11:51 10° SSW 18:17:06 86° WNW 18:22:27 10° NNE
Cosmos 1725 Rocket 4.2 18:11:14 10° NNW 18:17:36 80° W 18:23:52 10° S
NOSS 3-2 (C) 4.4 18:14:15 10° S 18:19:13 27° ESE 18:24:38 10° ENE
Cosmos 2237 Rocket 2.2 18:14:44 10° NNW 18:20:25 87° ENE 18:26:03 10° SSE
Cosmos 2219 3.2 18:15:16 10° SSW 18:20:48 64° ESE 18:26:25 10° NE
SL-16 R/B 2.5 18:16:27 10° NNW 18:21:58 47° NE 18:27:25 10° SE
CZ-4C R/B 3.6 18:17:29 10° NW 18:23:12 33° NNE 18:29:16 12° ENE
Cosmos 2056 Rocket 3.7 18:18:24 10° NNW 18:23:49 83° WSW 18:29:16 10° SSE
H-2A R/B 2.8 18:20:28 10° SSE 18:24:18 57° ENE 18:28:09 10° N
SPOT 3 Rocket 3.5 18:19:50 10° SSE 18:25:02 83° ENE 18:30:18 10° NNW
Cosmos 2227 Rocket 2.9 18:20:22 10° SSE 18:25:18 32° ESE 18:30:15 10° NE
MTI 3.9 18:23:01 10° NNE 18:26:10 51° E 18:29:17 10° S
Cosmos 2112 Rocket 4.0 18:23:09 10° SSW 18:28:29 83° ESE 18:33:54 10° NNE
Cosmos 1674 Rocket 3.8 18:24:57 10° N 18:29:12 46° ENE 18:33:23 10° SSE
Cosmos 1452 Rocket 3.7 18:25:04 10° NNW 18:30:16 53° ENE 18:35:25 10° SE
Cosmos 1825 4.0 18:29:13 10° SW 18:32:41 34° WNW 18:36:11 10° N
Okean 1-7 4.5 18:29:10 10° NNW 18:33:20 43° W 18:37:30 10° SSW
NOAA 12 4.4 18:29:48 10° S 18:35:05 72° WSW 18:40:27 10° NNW
CZ-2D R/B 4.0 18:31:38 10° SE 18:35:07 32° ENE 18:38:36 10° N
Cosmos 2123 Rocket 4.1 18:29:59 10° SSW 18:36:11 81° W 18:42:24 10° N
Cosmos 405 3.8 18:34:11 10° SSE 18:37:16 29° E 18:40:23 10° NNE
Cosmos 1812 2.8 18:34:47 10° N 18:38:36 51° ENE 18:42:23 10° SSE
FENGYUN 3A 4.4 18:34:20 10° S 18:39:39 59° WSW 18:45:02 10° NNW
Cosmos 2297 Rocket 2.8 18:34:39 10° S 18:39:44 35° ESE 18:44:50 10° NE
YAOGAN 1 4.4 18:37:39 10° SSW 18:41:39 35° W 18:45:40 10° NNW
ATLAS CENTAUR R/B 3.1 18:41:45 10° NNW 18:44:28 17° NNE 18:46:17 14° NE
Spot 2 Rocket 4.4 18:42:05 14° ESE 18:45:25 27° ENE 18:49:38 10° N
USA 267 3.3 18:40:30 13° ESE 18:46:29 78° NNE 18:53:03 10° WNW
Cosmos 1939 Rocket 4.1 18:46:21 19° E 18:47:58 24° ENE 18:51:18 10° N
SKYMED 2 4.0 18:44:18 10° N 18:48:38 68° WNW 18:52:57 10° SSW
YAOGAN 6 3.9 18:50:02 21° ENE 18:50:12 21° ENE 18:52:59 10° NNE
Resurs 01 Rocket 2.5 18:47:32 16° ESE 18:50:17 29° ENE 18:54:08 10° N
Cosmos 1733 Rocket 3.0 18:46:04 10° S 18:50:18 59° E 18:54:35 10° NNE
Cosmos 2333 Rocket 3.8 18:45:57 10° NW 18:51:10 38° WSW 18:56:20 10° S
Tiangong 2 3.7 18:49:48 10° SW 18:51:35 14° S 18:53:22 10° SSE
USA 186 2.8 18:51:33 25° ENE 18:51:54 25° ENE 18:54:42 10° N
Cosmos 1420 Rocket 4.0 18:48:35 10° NNW 18:53:50 66° ENE 18:59:06 10° SE
Cosmos 921 Rocket 3.6 18:50:40 10° N 18:54:55 38° ENE 18:57:35 20° ESE
CENTAUR R/B 3.6 18:50:38 10° SSE 18:55:14 22° ESE 18:57:07 20° E
Cosmos 44 Rocket 3.3 18:52:32 10° NW 18:57:32 77° NE 19:01:50 15° SE
ERS-2 2.3 18:54:25 10° SSE 18:58:07 77° WSW 19:01:50 10° NNW
Iridium 4 Rocket 3.5 18:53:12 10° N 18:58:20 52° E 19:02:58 10° SSE
Cosmos 1680 Rocket 4.3 18:54:30 10° SW 18:59:43 54° WNW 19:04:59 10° NNE
FREGAT/IRIS 2.7 18:58:11 10° S 19:01:08 73° WSW 19:04:07 10° NNW
Okean 3 3.3 18:57:15 10° N 19:01:28 77° E 19:05:38 10° SSE
Cosmos 1975 Rocket 3.7 18:58:00 10° N 19:02:02 33° ENE 19:03:54 24° ESE
EO 1 Del DPAF 3.2 18:58:51 10° NNE 19:02:43 88° WNW 19:06:33 10° SSW
Cosmos 2082 3.9 18:59:57 10° S 19:05:19 48° ESE 19:10:44 10° NE
Thor Agena Rocket 3.7 19:08:34 10° NNE 19:13:31 45° E 19:18:21 10° S
Cosmos 1633 2.6 19:12:45 10° S 19:16:12 50° E 19:19:42 10° NNE
NOSS 3-2 (A) 3.4 19:11:58 10° SSW 19:18:00 74° SE 19:23:49 15° NE
Lacrosse 5 3.9 19:14:28 10° WNW 19:18:33 25° SW 19:22:37 10° S
ATLAS 3B R/B 2.8 19:13:08 10° SW 19:20:20 79° NW 19:26:49 12° NE
DNEPR-1 R/B 3.5 19:17:57 10° SSW 19:22:04 56° SE 19:23:34 36° ENE
Cosmos 2084 Rocket 3.3 19:18:15 10° SSW 19:22:31 63° SE 19:23:51 40° ENE
Sich 1 Rocket 3.8 19:21:42 10° SSE 19:26:03 48° E 19:30:22 10° NNE
CRYOSAT 2 4.3 19:22:29 10° NNE 19:27:20 58° E 19:32:08 10° S
USA 32 4.0 19:23:36 10° S 19:28:44 59° E 19:33:53 10° NNE
SJ-6B 3.2 19:25:04 10° S 19:28:48 62° WSW 19:32:38 10° NNW
Cosmos 1378 Rocket 3.6 19:25:15 10° NNW 19:29:39 78° W 19:34:04 10° S
Cosmos 1464 Rocket 4.0 19:23:57 10° NNW 19:30:07 81° W 19:36:15 10° S
USA 238 DEB 4.0 19:26:04 10° WSW 19:32:58 70° NW 19:39:07 14° NE
USA 238 3.9 19:26:10 10° WSW 19:33:04 70° NW 19:39:12 14° NE
Envisat 3.0 19:28:35 10° SSE 19:33:40 83° WSW 19:38:48 10° NNW
Aureole 3 4.1 19:30:22 10° SSW 19:36:21 78° WNW 19:41:02 10° N
Okean 1 3.2 19:32:18 10° N 19:36:21 89° WSW 19:38:34 26° S
Cosmos 44 4.3 19:36:26 10° NW 19:41:10 46° WSW 19:45:16 15° SSE
Cosmos 1110 Rocket 4.1 19:36:08 10° NNW 19:41:19 54° ENE 19:42:18 47° E
ARGOS 4.0 19:44:36 31° NE 19:44:36 31° NE 19:48:52 10° N
H-2A R/B 3.4 19:45:53 24° NE 19:45:53 24° NE 19:49:22 10° N
ARGOS Delta rocket 3.7 19:41:46 10° NNE 19:46:53 80° E 19:51:40 10° S
Meteor 1-13 Rocket 4.1 19:41:32 10° N 19:47:06 63° ENE 19:48:51 42° SE
SeaSat 1 3.8 19:42:49 10° S 19:47:25 39° WSW 19:52:03 10° NW
NOAA 11 4.2 19:49:20 49° ESE 19:50:15 56° ENE 19:55:33 10° N
Cosmos 1943 3.5 19:45:26 10° NNW 19:50:54 47° NE 19:51:28 45° ENE
USA 215 3.2 19:50:36 38° E 19:53:06 63° SE 19:59:35 10° SW
Meteor 1-14 Rocket 4.5 19:47:31 10° SSW 19:53:18 74° WNW 19:59:15 10° N
Cosmos 2034 Rocket 4.4 19:57:07 10° NNW 20:03:26 65° W 20:09:43 10° S
Cosmos 2279 Rocket 4.5 19:59:23 10° N 20:04:37 41° NE 20:04:37 41° NE
SL-16 R/B 3.5 20:00:47 10° NW 20:06:01 39° WSW 20:11:13 10° S
Cosmos 2227 Rocket 2.8 20:03:34 10° SW 20:09:07 56° NW 20:14:42 10° NNE
NOSS 3-2 (C) 3.5 20:03:16 10° SW 20:09:25 81° NW 20:13:02 30° NE
CZ-4C R/B 2.9 20:06:18 10° NW 20:12:59 62° NE 20:14:29 52° E
Cosmos 1331 Rocket 3.9 20:11:53 10° NNW 20:17:14 86° ENE 20:17:18 85° E
Cosmos 1634 Rocket 3.8 20:13:30 10° N 20:19:44 79° E 20:20:34 66° SE
Geosat 4.1 20:22:42 67° SSW 20:22:42 67° SSW 20:27:03 10° SSW
USA 186 4.1 20:23:06 25° WNW 20:23:06 25° WNW 20:25:28 10° NW
Cosmos 1939 Rocket 3.9 20:22:15 43° WSW 20:22:41 45° W 20:26:40 10° NNW
YAOGAN 6 4.2 20:24:26 34° WNW 20:24:26 34° WNW 20:27:00 10° NNW
Cosmos 2297 Rocket 2.9 20:18:08 10° SW 20:23:38 51° NW 20:28:34 13° NNE
Spot 2 Rocket 4.0 20:22:16 36° SSW 20:24:05 57° W 20:29:06 10° NNW
ATLAS CENTAUR R/B 2.9 20:20:19 10° NW 20:22:33 30° NNW 20:22:33 30° NNW
Cosmos 1603 3.8 20:18:37 10° NNW 20:24:18 73° WSW 20:25:04 63° SSW
Cosmos 2142 Rocket 4.4 20:19:28 10° N 20:25:54 76° E 20:26:18 73° ESE
Resurs 01 Rocket 2.8 20:25:06 29° SW 20:26:40 40° W 20:30:52 10° NNW
Cosmos 1048 Rocket 4.4 20:21:40 10° SSW 20:25:47 55° SSW 20:25:47 55° SSW
Cosmos 1816 Rocket 4.5 20:22:28 10° S 20:28:51 85° W 20:35:16 10° N
USA 267 3.8 20:27:51 40° S 20:29:47 51° SW 20:36:09 10° WNW
ERS-1 Rocket 4.2 20:36:31 33° N 20:36:31 33° N 20:39:23 10° N
Cosmos 2346 Rocket 4.4 20:29:44 10° S 20:35:58 87° W 20:42:11 10° N
CENTAUR R/B 2.5 20:38:34 10° SW 20:44:25 79° SSW 20:44:25 79° SSW
Meteor 2-4 Rocket 4.2 20:42:32 10° NNW 20:48:19 58° W 20:49:07 53° SW
ATLAS 3B R/B 3.9 21:05:32 10° W 21:11:59 37° NNW 21:14:06 30° NNE
Terra 4.5 21:20:19 12° N 21:20:19 12° N 21:20:46 10° N
Cosmos 2082 Rocket 4.4 21:18:35 10° NNW 21:20:43 16° N 21:20:43 16° N
H-2A R/B 3.7 21:26:31 31° NNW 21:26:31 31° NNW 21:29:23 10° NNW
USA 215 3.9 21:37:57 50° W 21:37:57 50° W 21:42:44 10° W
CZ-4C R/B 3.8 21:54:55 10° NW 21:59:41 40° W 21:59:41 40° W
